Regional Weather Roundup
Issued by NWS

Home | Current Version | Previous Version | Graphics & Text | Print | Product List | Glossary Off
Versions: 1 2 3 4 5 6 7 8 9 10 11 12 13 14 15 16 17 18 19 20 21 22 23 24 25 26 27 28 29 30 31 32 33 34 35 36 37 38 39 40 41 42 43 44 45 46 47 48 49 50

000
ASUS43 KDMX 212106
RWRIA

WEATHER ROUNDUP FOR IOWA
NATIONAL WEATHER SERVICE DES MOINES IA
300 PM CST TUE FEB 21 2017

NOTE: "FAIR" INDICATES FEW OR NO CLOUDS BELOW 12,000 FEET WITH NO
SIGNIFICANT WEATHER AND/OR OBSTRUCTIONS TO VISIBILITY.

* - THESE STATIONS ARE NOT NWS STATIONS...THUS NOT UNDER NWS
QUALITY CONTROL.  THEY ALSO DO NOT REPORT WEATHER SUCH
AS PRECIPITATION OR FOG.

IAZ001>003-012>014-020>022-031>034-043>046-212200-
   NORTHWEST IOWA

CITY           SKY/WX    TMP DP  RH WIND       PRES   REMARKS
CARROLL *      SUNNY     64  43  45 SW20      29.83F
CHEROKEE *     SUNNY     66  40  38 S21       29.77F
DENISON *      SUNNY     66  43  42 S16G25    29.81F
LE MARS *      SUNNY     68  41  37 S24       29.75F
ORANGE CITY *  SUNNY     66  45  45 SW20      29.75F
SHELDON *      SUNNY     64  46  52 S17G29    29.73S
SIOUX CITY     SUNNY     73  40  30 SW20G36   29.77F
SPENCER        SUNNY     66  43  43 SW23G31   29.75F
STORM LAKE *   SUNNY     64  43  45 SW20G31   29.79F
$$

IAZ055>058-069>071-079>083-090>094-212200-
   SOUTHWEST IOWA

CITY           SKY/WX    TMP DP  RH WIND       PRES   REMARKS
ATLANTIC *     SUNNY     64  43  45 S15       29.87F
CLARINDA *     SUNNY     66  37  34 SW9         N/A
COUNCIL BLFS * SUNNY     68  39  34 SW15      29.87F
CRESTON *      SUNNY     64  37  36 SW10G17   29.91F
HARLAN  *      SUNNY     64  43  45 SW16      29.89F
LAMONI         SUNNY     69  34  27 W8        29.91F
RED OAK *      SUNNY     66  43  42 S10       29.89F
SHENANDOAH *   SUNNY     68  41  37 SW14      29.90F
$$

IAZ047>049-059>061-072>074-084-212200-
   CENTRAL IOWA

CITY           SKY/WX    TMP DP  RH WIND       PRES   REMARKS
AMES           SUNNY     64  45  49 SW14      29.87F
ANKENY *       SUNNY     66  36  32 SW7       29.90F
BOONE *        SUNNY     63  45  51 S9G16     29.86F
CHARITON *     SUNNY     68  34  28 SW8       29.90F
DES MOINES     MOSUNNY   68  33  27 W12       29.89F
GRINNELL*      SUNNY     63  43  48 SW7       29.91F
KNOXVILLE *    SUNNY     66  34  30 SW8       29.89F
MARSHALLTOWN   SUNNY     63  42  46 SW10      29.88F
NEWTON *       SUNNY     64  37  36 SW10      29.89F
PELLA *        SUNNY     67  36  31 SW5       29.91F
PERRY *          N/A     64  43  46 S12       29.87F
$$

IAZ004>006-015-016-023>025-035-036-212200-
   NORTH CENTRAL IOWA

CITY           SKY/WX    TMP DP  RH WIND       PRES   REMARKS
ALGONA *       CLOUDY    63  46  55 S24       29.78F
CLARION *      MOSUNNY   63  48  59 SW21      29.83F
ESTHERVILLE    SUNNY     64  43  46 S16G30    29.75F
FORT DODGE *   SUNNY     63  45  51 S20       29.84F
MASON CITY     CLOUDY    57  46  66 S13       29.83F
FOREST CITY *    N/A     59  46  63 S15       29.81F
WEBSTER CITY * SUNNY     63  46  55 S17       29.83F
IOWA FALLS *     N/A     63  46  54 S14       29.88F
$$

IAZ007>011-017>019-026>030-037>042-050>054-066-212200-
   NORTHEAST IOWA

CITY           SKY/WX    TMP DP  RH WIND       PRES   REMARKS
CEDAR RAPIDS   SUNNY     63  42  46 W6        29.90S
CHARLES CITY * SUNNY     57  46  67 S14G21    29.86F
CLINTON *      SUNNY     63  44  50 SW6       29.91F
DECORAH *      SUNNY     59  39  47 SW10      29.86F
DUBUQUE        SUNNY     60  41  49 SW5       29.90S
MONTICELLO *   SUNNY     63  39  42 SW7       29.90S
OELWEIN *      MOSUNNY   59  46  63 S12       29.89F
WATERLOO       SUNNY     58  41  53 SW9       29.89S
$$

IAZ064-065-067-068-078-212200-
   EAST CENTRAL IOWA

CITY           SKY/WX    TMP DP  RH WIND       PRES   REMARKS
DAVENPORT      SUNNY     63  43  48 VRB3      29.91F
IOWA CITY      SUNNY     66  40  38 S7        29.91F
MUSCATINE *    SUNNY     66  41  39 CALM      29.91F
QUAD CITIES    SUNNY     68  43  40 CALM      29.89F
$$

IAZ062-063-075>077-085>089-095>099-212200-
   SOUTHEAST IOWA

CITY           SKY/WX    TMP DP  RH WIND       PRES   REMARKS
BURLINGTON     SUNNY     66  54  65 S7        29.89F
FAIRFIELD *    SUNNY     66  34  30 SE3       29.90S
KEOKUK *       SUNNY     66  55  68 S6        29.89F
OTTUMWA        SUNNY     70  36  28 VRB3      29.90S
WASHINGTON *   SUNNY     66  37  34 W3        29.91S
$$

ABBREVIATIONS USED IN REMARKS
   TC - TEMPERATURES IN CELSIUS
  WCI - WIND CHILL INDEX
   HX - HEAT INDEX
  VSB - VISIBILITY
$$




USA.gov is the U.S. government's official web portal to all federal, state and local government web resources and services.